Telluride, CO

9:21 AM MST on December 06, 2016 (GMT -0700)
Telluride Regional

Weather History for KTEX - April, 2012

Change the Weather History Date:

Sunday, April 8, 2012

  Actual Average Record
Temperature  
Mean Temperature 45 °F -  
Max Temperature 57 °F 42 °F 57 °F (2012)
Min Temperature 33 °F 23 °F 8 °F (2003)
Degree Days  
Heating Degree Days 20    
Moisture  
Dew Point 1 °F    
Average Humidity 16    
Maximum Humidity 28    
Minimum Humidity 9    
Precipitation  
Precipitation 0.00 in - - ()
Sea Level Pressure  
Sea Level Pressure 30.40 in    
Wind  
Wind Speed 7 mph (South)    
Max Wind Speed 15 mph    
Max Gust Speed 24 mph    
Visibility 10 miles    
Events      
Averages and records for this station are not official NWS values.
T = Trace of Precipitation, MM = Missing Value Source: NWS Daily Summary

Daily Weather History Graph

Daily Weather History Graph

Search for Another Location

Airport or City:

Trip Planner

Search our weather history database for the weather conditions in past years. The results will help you decide how hot, cold, wet, or windy it might be!

Date:

Astronomy

Apr. 08, 2012 Rise Set
Actual Time 6:45 AM MDT 7:41 PM MDT
Civil Twilight 6:18 AM MDT 8:08 PM MDT
Nautical Twilight 5:46 AM MDT 8:40 PM MDT
Astronomical Twilight 5:14 AM MDT 9:13 PM MDT
Moon 10:28 PM MDT (4/8) 7:47 AM MDT (4/8)
Length of Visible Light 13h 49m
Length of Day
12h 56m
Waning Gibbous, 94% of the Moon is Illuminated
Apr 8
Waning Gibbous
Apr 13
Last Quarter
Apr 21
New
Apr 29
First Quarter
May 5
Full

Hourly Weather History & Observations

Time (MDT) Temp. Windchill Dew Point Humidity Pressure Visibility Wind Dir Wind Speed Gust Speed Precip Events Conditions
12:15 AM 35.6 °F 29.9 °F 5.0 °F 28% 30.43 in 10.0 mi East 6.9 mph - N/A   Clear
12:35 AM 35.6 °F 29.9 °F 3.2 °F 26% 30.43 in 10.0 mi ESE 6.9 mph - N/A   Clear
12:55 AM 35.6 °F 30.7 °F 1.4 °F 24% 30.43 in 10.0 mi East 5.8 mph - N/A   Clear
1:15 AM 35.6 °F 30.7 °F -0.4 °F 22% 30.44 in 10.0 mi SE 5.8 mph - N/A   Clear
1:35 AM 35.6 °F 28.6 °F 1.4 °F 24% 30.43 in 10.0 mi SE 9.2 mph - N/A   Clear
1:55 AM 33.8 °F 30.8 °F 1.4 °F 25% 30.43 in 10.0 mi ESE 3.5 mph - N/A   Clear
2:15 AM 33.8 °F 29.6 °F -0.4 °F 23% 30.43 in 10.0 mi East 4.6 mph - N/A   Clear
2:35 AM 33.8 °F 30.8 °F -0.4 °F 23% 30.42 in 10.0 mi ESE 3.5 mph - N/A   Clear
2:55 AM 33.8 °F 27.7 °F -0.4 °F 23% 30.42 in 10.0 mi SE 6.9 mph - N/A   Clear
3:15 AM 33.8 °F 27.7 °F -4.0 °F 20% 30.42 in 10.0 mi ESE 6.9 mph - N/A   Clear
3:35 AM 33.8 °F 26.4 °F -4.0 °F 20% 30.42 in 10.0 mi ESE 9.2 mph - N/A   Clear
4:15 AM 35.6 °F 31.7 °F -7.6 °F 16% 30.42 in 10.0 mi East 4.6 mph - N/A   Clear
4:55 AM 37.4 °F - -9.4 °F 13% 30.41 in 10.0 mi Calm Calm - N/A   Clear
5:15 AM 35.6 °F 32.8 °F -7.6 °F 16% 30.41 in 10.0 mi ESE 3.5 mph - N/A   Clear
5:55 AM 37.4 °F - -7.6 °F 15% 30.41 in 10.0 mi Calm Calm - N/A   Clear
6:15 AM 37.4 °F 32.8 °F -5.8 °F 16% 30.41 in 10.0 mi SE 5.8 mph - N/A   Clear
6:35 AM 37.4 °F 33.8 °F -5.8 °F 16% 30.41 in 10.0 mi ESE 4.6 mph - N/A   Clear
6:55 AM 35.6 °F 30.7 °F -5.8 °F 17% 30.42 in 10.0 mi ESE 5.8 mph - N/A   Clear
7:15 AM 35.6 °F 27.5 °F -0.4 °F 22% 30.42 in 10.0 mi SE 11.5 mph - N/A   Clear
7:35 AM 35.6 °F 29.2 °F 1.4 °F 24% 30.42 in 10.0 mi SE 8.1 mph - N/A   Clear
7:55 AM 35.6 °F 29.2 °F -0.4 °F 22% 30.43 in 10.0 mi SE 8.1 mph - N/A   Clear
8:15 AM 39.2 °F 35.0 °F -4.0 °F 16% 30.43 in 10.0 mi ESE 5.8 mph - N/A   Clear
8:35 AM 41.0 °F 38.0 °F 1.4 °F 19% 30.43 in 10.0 mi SE 4.6 mph - N/A   Clear
9:35 AM 48.2 °F - 1.4 °F 15% 30.43 in 10.0 mi Calm Calm - N/A   Clear
10:15 AM 51.8 °F - -0.4 °F 12% 30.43 in 10.0 mi Calm Calm - N/A   Clear
10:35 AM 51.8 °F - -4.0 °F 10% 30.43 in 10.0 mi Calm Calm - N/A   Clear
10:55 AM 53.6 °F - -5.8 °F 9% 30.43 in 10.0 mi West 6.9 mph 17.3 mph N/A   Clear
11:15 AM 53.6 °F - -4.0 °F 9% 30.43 in 10.0 mi West 15.0 mph 23.0 mph N/A   Clear
11:35 AM 53.6 °F - -2.2 °F 10% 30.43 in 10.0 mi SW 11.5 mph 21.9 mph N/A   Clear
11:55 AM 53.6 °F - 1.4 °F 12% 30.43 in 10.0 mi West 10.4 mph 24.2 mph N/A   Clear
12:15 PM 55.4 °F - 1.4 °F 11% 30.43 in 10.0 mi WSW 9.2 mph 19.6 mph N/A   Clear
12:55 PM 55.4 °F - 1.4 °F 11% 30.42 in 10.0 mi WNW 9.2 mph 20.7 mph N/A   Clear
1:15 PM 55.4 °F - 1.4 °F 11% 30.42 in 10.0 mi West 15.0 mph 19.6 mph N/A   Scattered Clouds
1:55 PM 55.4 °F - 1.4 °F 11% 30.41 in 10.0 mi West 10.4 mph 24.2 mph N/A   Scattered Clouds
2:15 PM 55.4 °F - 3.2 °F 12% 30.40 in 10.0 mi West 10.4 mph 20.7 mph N/A   Mostly Cloudy
2:35 PM 55.4 °F - 3.2 °F 12% 30.39 in 10.0 mi WNW 8.1 mph 18.4 mph N/A   Mostly Cloudy
2:55 PM 55.4 °F - -0.4 °F 10% 30.39 in 10.0 mi SW 12.7 mph 17.3 mph N/A   Mostly Cloudy
3:15 PM 55.4 °F - 3.2 °F 12% 30.38 in 10.0 mi SW 6.9 mph - N/A   Mostly Cloudy
3:35 PM 55.4 °F - 3.2 °F 12% 30.38 in 10.0 mi West 10.4 mph 17.3 mph N/A   Overcast
3:55 PM 53.6 °F - 3.2 °F 13% 30.37 in 10.0 mi WSW 9.2 mph 20.7 mph N/A   Overcast
4:15 PM 55.4 °F - 3.2 °F 12% 30.37 in 10.0 mi WSW 5.8 mph 17.3 mph N/A   Overcast
4:35 PM 55.4 °F - 3.2 °F 12% 30.36 in 10.0 mi West 13.8 mph 18.4 mph N/A   Overcast
4:55 PM 55.4 °F - 3.2 °F 12% 30.36 in 10.0 mi West 8.1 mph - N/A   Mostly Cloudy
5:15 PM 57.2 °F - 3.2 °F 11% 30.35 in 10.0 mi WSW 11.5 mph 24.2 mph N/A   Mostly Cloudy
5:35 PM 55.4 °F - 5.0 °F 13% 30.36 in 10.0 mi SW 10.4 mph 17.3 mph N/A   Scattered Clouds
5:55 PM 55.4 °F - 5.0 °F 13% 30.36 in 10.0 mi Calm Calm - N/A   Mostly Cloudy
6:15 PM 55.4 °F - 3.2 °F 12% 30.36 in 10.0 mi West 9.2 mph - N/A   Mostly Cloudy
6:35 PM 55.4 °F - 3.2 °F 12% 30.36 in 10.0 mi West 8.1 mph - N/A   Scattered Clouds
6:55 PM 53.6 °F - 5.0 °F 14% 30.35 in 10.0 mi SW 6.9 mph - N/A   Scattered Clouds
7:15 PM 53.6 °F - 5.0 °F 14% 30.35 in 10.0 mi WSW 4.6 mph - N/A   Mostly Cloudy
7:35 PM 51.8 °F - 5.0 °F 15% 30.35 in 10.0 mi West 9.2 mph - N/A   Mostly Cloudy
7:55 PM 51.8 °F - 5.0 °F 15% 30.35 in 10.0 mi WSW 6.9 mph - N/A   Scattered Clouds
8:15 PM 50.0 °F - 5.0 °F 16% 30.36 in 10.0 mi Calm Calm - N/A   Clear
8:35 PM 50.0 °F - 6.8 °F 17% 30.36 in 10.0 mi Calm Calm - N/A   Clear
8:55 PM 48.2 °F - 10.4 °F 22% 30.37 in 10.0 mi ESE 6.9 mph - N/A   Clear
9:15 PM 46.4 °F 42.4 °F 12.2 °F 25% 30.37 in 10.0 mi ESE 8.1 mph - N/A   Clear
9:35 PM 44.6 °F 40.7 °F 12.2 °F 27% 30.38 in 10.0 mi SE 6.9 mph - N/A   Clear
9:55 PM 44.6 °F 40.7 °F 12.2 °F 27% 30.38 in 10.0 mi ESE 6.9 mph - N/A   Clear
10:15 PM 42.8 °F 38.6 °F 14.0 °F 31% 30.38 in 10.0 mi SE 6.9 mph - N/A   Clear
10:35 PM 42.8 °F 38.0 °F 14.0 °F 31% 30.37 in 10.0 mi ESE 8.1 mph - N/A   Clear
10:55 PM 42.8 °F 38.0 °F 14.0 °F 31% 30.37 in 10.0 mi SE 8.1 mph - N/A   Clear
11:15 PM 42.8 °F 40.1 °F 14.0 °F 31% 30.37 in 10.0 mi SE 4.6 mph - N/A   Clear
11:35 PM 41.0 °F 36.4 °F 14.0 °F 33% 30.37 in 10.0 mi ESE 6.9 mph - N/A   Clear
11:55 PM 41.0 °F 37.1 °F 14.0 °F 33% 30.37 in 10.0 mi SE 5.8 mph - N/A   Clear